INTELSAT 22 (IS-22) (38098 NORAD) Tracking and Keplerian Element Data

This shows tracking and keplerian element data for the satellite.

Feedback or suggestion? Click here.




ElementValue
Catalog38098
NameINTELSAT 22 (IS-22)
Epoch Orbit2456
Epoch Day348.56853837
Epoch Year2018
RAAN24.076
Inclination0.0209
Eccentricity0.0002727
Argument of Perigee234.0025
Mean Anonmoly101.891
Mean Motion1.00270173
Decay Rate-4.8E-07
L11 38098U 12011A 18348.56853837 -.00000048 00000-0 00000+0 0 9994
L22 38098 0.0209 24.0760 0002727 234.0025 101.8910 1.00270173 24562

Live tracking and technical data element details for INTELSAT 22 (IS-22) (NORAD 38098). INTELSAT 22 (IS-22) can be tracked NOW for your location showing map with azimuth and elevation plus other details from your city location.

Track the satellite on the map from your city or location and see movement details for azimuth, elevation, latitude, longitude, range, height, and movement on the map or in text.







IsCatalogInMostPopularTable: catalog: 38098, numindb: 62
Update: records affected: 1



GetName: 38098 INTELSAT 22 (IS-22)

Hit Count: updated at: Sun, 16 Dec 2018 11:42:29 GMT